Find Starlink 5749

NORAD ID: 55569 Int'l Des: 2023-020 Owner: SPXS Country: US Constellation: starlink operational
LEOCIRCULAR

当前视图

正在加载3D地球...

About Starlink 5749

Starlink 5749 (NORAD 55569) is a starlink constellation satellite (v1.5) launched Feb 12, 2023 by SPXS of US. It operates in LEO, CIRCULAR orbit with a mass of 305.00 kg.

关于 Starlink 5749

正在加载描述...

即将过境

Passes for default location (London). Set your location on the main map for personalized predictions.

高度历史

Loading altitude history...

两行轨道根数

1 55569U 23020A 26171.24082958 .00000420 00000-0 24768-4 0 9999
2 55569 42.9995 149.7161 0001120 265.9947 94.0777 15.27576449185621
Epoch: Jun 20, 2026 • Age: 18 hours

当前状态

高度 485.3 km
速度 7.62 km/s
星下点 -13.67°S, 72.57°E
发射日期 Feb 12, 2023
运行时间 3.3 years
类型 internet

技术详情

分类 Payload
质量 305.00 kg
干质量 290.00 kg
总质量 305.00 kg
长度 0.20 m
直径 2.80 m
跨度 9.00 m
形状 Box + pan
制造商 SPXS
平台类型 Starlink
阶段状态 In Orbit
所有者/国家 SPXS/US

Most Searched